TimeEDT,TemperatureF,Dew PointF,Humidity,Sea Level PressureIn,VisibilityMPH,Wind Direction,Wind SpeedMPH,Gust SpeedMPH,PrecipitationIn,Events,Conditions,WindDirDegrees,DateUTC
12:55 AM,60.4,59.7,97,29.60,6.0,WSW,5.8,-,0.02,Rain,Rain,250,2012-10-16 04:55:00
1:55 AM,59.5,59.4,99,29.57,8.0,SW,3.5,-,0.09,Rain,Light Rain,230,2012-10-16 05:55:00
2:55 AM,59.4,59.0,99,29.56,8.0,West,4.6,-,0.01,Rain,Light Rain,260,2012-10-16 06:55:00
3:55 AM,58.5,58.3,99,29.55,10.0,West,6.9,-,0.00,Rain,Light Rain,280,2012-10-16 07:55:00
4:55 AM,57.6,56.3,96,29.55,10.0,West,8.1,-,0.00,Rain,Light Rain,280,2012-10-16 08:55:00
5:55 AM,54.7,51.4,89,29.54,10.0,WNW,9.2,-,0.02,,Overcast,300,2012-10-16 09:55:00
6:55 AM,53.8,49.1,84,29.55,10.0,West,11.5,-,N/A,,Overcast,270,2012-10-16 10:55:00
7:55 AM,52.7,47.1,81,29.57,10.0,West,10.4,-,N/A,,Mostly Cloudy,260,2012-10-16 11:55:00
8:55 AM,53.6,43.5,69,29.58,10.0,West,13.8,19.6,N/A,,Mostly Cloudy,280,2012-10-16 12:55:00
9:55 AM,54.5,39.2,56,29.59,10.0,WNW,20.7,27.6,N/A,,Scattered Clouds,290,2012-10-16 13:55:00
10:55 AM,54.5,38.7,55,29.59,10.0,WNW,16.1,25.3,N/A,,Scattered Clouds,290,2012-10-16 14:55:00
11:55 AM,54.5,37.8,53,29.61,10.0,WNW,18.4,27.6,N/A,,Mostly Cloudy,290,2012-10-16 15:55:00
12:55 PM,53.4,36.0,52,29.60,10.0,West,20.7,27.6,N/A,,Mostly Cloudy,280,2012-10-16 16:55:00
1:55 PM,54.7,33.8,45,29.59,10.0,WNW,23.0,28.8,N/A,,Partly Cloudy,300,2012-10-16 17:55:00
2:55 PM,54.0,33.3,46,29.63,10.0,WNW,17.3,27.6,N/A,,Scattered Clouds,290,2012-10-16 18:55:00
3:55 PM,53.1,32.5,46,29.66,10.0,NW,21.9,29.9,N/A,,Partly Cloudy,310,2012-10-16 19:55:00
4:55 PM,51.8,33.3,49,29.70,10.0,WNW,10.4,18.4,N/A,,Partly Cloudy,300,2012-10-16 20:55:00
5:55 PM,48.6,33.4,56,29.74,10.0,NW,11.5,-,N/A,,Partly Cloudy,310,2012-10-16 21:55:00
6:55 PM,45.9,32.9,61,29.77,10.0,WNW,5.8,-,N/A,,Clear,300,2012-10-16 22:55:00
7:55 PM,43.9,33.3,66,29.80,10.0,West,6.9,-,N/A,,Clear,280,2012-10-16 23:55:00
8:55 PM,42.3,32.9,69,29.81,10.0,West,9.2,-,N/A,,Clear,270,2012-10-17 00:55:00
9:55 PM,43.5,33.3,67,29.83,10.0,West,5.8,-,N/A,,Clear,270,2012-10-17 01:55:00
10:55 PM,42.8,34.7,73,29.84,10.0,West,6.9,-,N/A,,Clear,270,2012-10-17 02:55:00
11:55 PM,41.4,33.8,74,29.86,10.0,WSW,6.9,-,N/A,,Clear,250,2012-10-17 03:55:00